阿斯特拉 1A星 (ASTRA 1A)

导读

ASTRA 1A卫星由SES发射,于1988年12月11日8时升空。它是SES Astra系列首颗通信卫星,主要面向欧洲区域提供电视广播与通信传输服务,开启了SES依托多卫星打造欧洲直播卫星服务网络的序幕,为欧洲家庭直接接收卫星电视信号奠定了基础,在欧洲卫星广播发展历程中具有开创性意义。

基本信息
目录编号:
19688
目录名称:
ASTRA 1A
国际标识:
1988-109B
轨道中心:
EARTH
卫星名称:
阿斯特拉 1A星
卫星全名:
阿斯特拉 1A星 (ASTRA 1A)
卫星状态:
在轨 (已飞行13700 天)
发射日期:
1988-12-11 UTC
国别 :
(SES)
星等 :
--
轨道信息
数据来源 国际轨道数据 AOE轨道数据
星历时间 2026-06-14T17:30:52+0800
21小时前
查看轨道信息
2026-06-15T06:00:00+0800
9小时前
查看轨道信息
半长轴 42714.954km 42714.954km
偏心率 0.001568 0.0015516
轨道倾角 14.786° 14.786°
近地点辐角 120.716° 120.652°
升交点赤经 6.026° 6.024°
平近点角 243.018° 67.262°
近地点 36269.839km 36270.54km
远地点 36403.795km 36403.094km
周期 1464.299分钟 1464.299分钟
每日圈数 0.983406 0.983406
详细信息
卫星平台:
GE-4000
平衡模式:
三轴稳定
覆盖范围:
全球
运营商:
欧洲卫星公司
运营商所在国:
卢森堡
制造商(研发单位):
通用电力
制造商所在国:
美国
使用方式:
暂无
卫星简介
阿斯特拉卫星是由SES阿斯特拉运营的商业通信卫星,主要提供电视直播到户业务。Astra卫星包括三个系列共19颗卫星,分别定点在三个不同轨位:Astra-1系列包括十三颗卫星,定点东经19.2度;Astra-2系列包括4颗卫星,定点东经28.2度;Astra-3系列包括2颗卫星,定点东经23.5度。该卫星已退役。
2D轨道图
3D轨道图
轨道高度分析图
轨道倾角分析图
轨道综合分析图
查看轨道综合分析图